Regional Weather Roundup
Issued by NWS

Home | Current Version | Previous Version | Graphics & Text | Print | Product List | Glossary On
Versions: 1 2 3 4 5 6 7 8 9 10 11 12 13 14 15 16 17 18 19 20 21 22 23 24 25 26 27 28 29 30 31 32 33 34 35 36 37 38 39 40 41 42 43 44 45 46 47 48 49 50
000
ASUS43 KOAX 221010
RWRNE

WEATHER ROUNDUP FOR NEBRASKA
NATIONAL WEATHER SERVICE OMAHA NE
500 AM CDT SUN APR 22 2018

NOTES: SATELLITE DATA IS BEING USED TO AUGMENT CLOUD COVER ABOVE
       12000 FEET.
       "FAIR" INDICATES FEW OR NO CLOUDS BELOW 12,000 FEET WITH NO
       SIGNIFICANT WEATHER AND/OR OBSTRUCTIONS TO VISIBILITY.


NEZ001>004-019>022-054>056-221100-
NEBRASKA PANHANDLE

CITY           SKY/WX    TMP DP  RH WIND       PRES   REMARKS
SCOTTSBLUFF    FAIR      33  33 100 E8        30.15S WCI  26
ALLIANCE       CLOUDY    36  36 100 S9        30.16S WCI  29
CHADRON        FAIR      32  30  92 S3        30.15S
GORDON         PTSUNNY   33  32  96 SW3       30.17S
KIMBALL        DRZL/FOG  33  33 100 SW8       30.15S VSB 1/4 WCI  26
SIDNEY         CLOUDY    37  33  85 S9        30.17S WCI  30
$$

NEZ057>060-069>072-079>082-221100-
SOUTHWEST NEBRASKA

CITY           SKY/WX    TMP DP  RH WIND       PRES   REMARKS
NORTH PLATTE   CLOUDY    40  38  93 CALM      30.22S FOG
IMPERIAL       CLOUDY    39  39 100 S7        30.21S WCI  34
LEXINGTON      FAIR      39  37  92 E6        30.22S WCI  35
MCCOOK         CLOUDY    39  39 100 NW3       30.22R FOG
OGALLALA       CLOUDY    37  37  98 CALM      30.20F FOG
$$

NEZ005>010-023>029-035>040-094-221100-
NORTH CENTRAL NEBRASKA

CITY           SKY/WX    TMP DP  RH WIND       PRES   REMARKS
VALENTINE      CLOUDY    41  37  86 S8        30.22R
AINSWORTH      MOCLDY    36  35  96 CALM      30.23R
BROKEN BOW     CLOUDY    38  35  89 CALM      30.22R
O`NEILL        FAIR      41  38  91 CALM      30.25R
ORD            CLOUDY    40  38  93 NW5       30.22S
THEDFORD       CLOUDY    40  37  92 S3        30.22R
$$

NEZ041-046>049-061>064-073>077-083>087-221100-
SOUTH CENTRAL NEBRASKA

CITY           SKY/WX    TMP DP  RH WIND       PRES   REMARKS
GRAND ISLAND   CLOUDY    38  36  92 N6        30.23R FOG     WCI  33
AURORA         CLOUDY    39  38  94 N8        30.22S WCI  34
HASTINGS       CLOUDY    40  39  97 NW9       30.21S WCI  34
HEBRON         CLEAR     40  37  89 N6        30.18F
HOLDREGE       CLOUDY    39  39 100 N5        30.21F FOG
KEARNEY        CLOUDY    40  38  93 N7        30.23S
YORK             N/A     39  39 100 N7        30.22S WCI  34
$$

NEZ011>018-030>034-042>045-221100-
NORTHEAST NEBRASKA

CITY           SKY/WX    TMP DP  RH WIND       PRES   REMARKS
NORFOLK        CLOUDY    34  31  88 W3        30.23S
ALBION         PTCLDY    35  34  94 NW5       30.24S WCI  31
BLAIR          CLOUDY    46  31  56 NE9       30.21F
COLUMBUS       PTCLDY    36  29  75 NW7       30.23F WCI  30
FREMONT        CLOUDY    39  32  76 CALM      30.22S
TEKAMAH        CLOUDY    39  31  72 N9        30.24S WCI  33
WAYNE          PTCLDY    31  30  96 CALM      30.24F
$$

NEZ050>053-065>068-078-088>093-221100-
SOUTHEAST NEBRASKA

CITY           SKY/WX    TMP DP  RH WIND       PRES   REMARKS
LINCOLN        MOCLDY    41  32  70 N9        30.21S
OMAHA EPPLEY   CLOUDY    48  31  51 N6        30.21F
BEATRICE       CLOUDY    43  35  74 N8        30.16F
FALLS CITY     MOCLDY    48  31  51 NE8       30.14S
NEBRASKA CITY  CLOUDY    46  32  57 NE9       30.17F
PLATTSMOUTH    CLOUDY    48  31  51 NE8       30.19S
$$

NEZ044-045-051>053-067-221100-
OMAHA AREA

CITY           SKY/WX    TMP DP  RH WIND       PRES   REMARKS
OMAHA EPPLEY   CLOUDY    48  31  51 N6        30.21F
BLAIR          CLOUDY    46  31  56 NE9       30.21F
FREMONT        CLOUDY    39  32  76 CALM      30.22S
MILLARD        CLOUDY    50  32  50 CALM      30.21F
OFFUTT AFB     MOCLDY    47  31  53 NE7       30.20S
PLATTSMOUTH    CLOUDY    48  31  51 NE8       30.19S
WAHOO          FAIR      38  29  68 N8        30.21F WCI  32
$$



USA.gov is the U.S. government's official web portal to all federal, state and local government web resources and services.